Location: Newark
(51.6850°N, 0.3180°W)
Time: 22:55:57
(UTC+00:00)

N. Korean satellite - Visible Passes

Search period start: 21 October 2019 00:00
Search period end: 31 October 2019 00:00
Orbit: 455 x 508 km, 97.2° (Epoch: 20 October)

Date Brightness Start Highest point End Pass type
(mag) Time Alt. Az. Time Alt. Az. Time Alt. Az.
21 Oct 7.3 05:55:41 10° NNE 05:59:15 61° E 06:02:52 10° S visible
21 Oct 10.1 18:11:29 10° WSW 18:13:24 14° W 18:15:19 10° NW visible
22 Oct 8.7 05:30:35 10° NNE 05:33:52 32° E 05:37:11 10° SSE visible
22 Oct 9.2 17:44:57 10° SSW 17:47:52 25° W 17:50:50 10° NW visible
23 Oct 9.8 05:05:48 10° NE 05:08:23 18° E 05:10:59 10° SE visible
24 Oct 10.6 04:42:34 10° E 04:42:49 10° E 04:43:04 10° E visible
25 Oct 7.7 05:47:50 10° NNE 05:51:24 50° E 05:54:59 10° S visible
25 Oct 9.9 18:03:06 10° SW 18:05:27 17° W 18:07:50 10° NW visible
26 Oct 9.1 05:22:48 10° NE 05:25:59 27° E 05:29:10 10° SSE visible
26 Oct 8.7 17:36:49 10° SSW 17:39:56 31° W 17:43:06 10° NNW visible
27 Oct 10.0 04:58:12 10° NE 05:00:27 15° E 05:02:44 10° SE visible
27 Oct 7.2 17:11:05 10° S 17:14:30 61° WSW 17:18:01 10° NNW visible
28 Oct 6.8 06:05:11 10° NNE 06:08:52 81° ESE 06:12:34 10° S visible
28 Oct 10.3 18:21:52 10° WSW 18:23:03 11° W 18:24:14 10° WNW visible
29 Oct 8.1 05:39:58 10° NNE 05:43:30 41° E 05:47:01 10° S visible
29 Oct 9.5 17:54:47 10° SW 17:57:27 21° W 18:00:11 10° NW visible
30 Oct 9.4 05:15:02 10° NE 05:18:02 23° E 05:21:02 10° SSE visible
30 Oct 8.3 17:28:42 10° SSW 17:31:58 38° W 17:35:19 10° NNW visible
